Regional Weather Roundup
Issued by NWS State College, PA

Home | Current Version | Previous Version | Graphics & Text | Print | Product List | Glossary On
Versions: 1 2 3 4 5 6 7 8 9 10 11 12 13 14 15 16 17 18 19 20 21 22 23 24 25 26 27 28 29 30 31 32 33 34 35 36 37 38 39 40 41 42 43 44 45 46 47 48 49 50
000
ASUS41 KCTP 241403
RWRCTP

REGIONAL WEATHER ROUNDUP
NATIONAL WEATHER SERVICE STATE COLLEGE PA
1000 AM EDT SUN JUL 24 2016

Note: "fair" indicates few or no clouds below 12,000 feet with no
significant weather and/or obstructions to visibility.

* = STATION THAT DOES NOT REPORT PRECIPITATION /E.G. RAIN...SNOW...ETC/
    THUNDER OR FOG.

PAZ002>004-007>009-013>016-020>023-029>032-241500-
WESTERN PENNSYLVANIA

CITY           SKY/WX    TMP DP  RH WIND       PRES   REMARKS
ERIE           CLOUDY    77  64  64 CALM      30.01R
MEADVILLE      PTSUNNY   73  61  65 S3        30.06R
FRANKLIN*      PTSUNNY   73  63  68 S5        30.08R
NEW CASTLE     FAIR      80  65  59 VRB3      30.05R
BEAVER COUNTY  NOT AVBL
BUTLER*        SUNNY     79  64  61 S5        30.07S
PITTSBURGH INT MOSUNNY   80  67  64 SE7       30.04S
PITTSBURGH     MOSUNNY   79  70  74 VRB3      30.04S
INDIANA*       SUNNY     82  66  57 S7        30.08F
LATROBE        MOSUNNY   81  73  78 CALM      30.05S
WASHINGTON CO* MOSUNNY   81  72  74 S3        30.05S
$$

PAZ004>006-010>012-017>019-024>028-033>037-041-042-045-046-049>053-241500-
CENTRAL PENNSYLVANIA

CITY           SKY/WX    TMP DP  RH WIND       PRES   REMARKS
BRADFORD       MOSUNNY   75  61  61 S5        30.09S
DUBOIS         SUNNY     78  57  48 SE3       30.07S
CLEARFIELD     SUNNY     77  59  53 S3        30.07F
JOHNSTOWN      SUNNY     76  64  66 SW6       30.10S
ALTOONA        SUNNY     81  58  45 CALM      30.07F
STATE COLLEGE  SUNNY     79  63  57 CALM      30.05F
WILLIAMSPORT   MOSUNNY   79  59  50 VRB5      30.01F
SELINSGROVE    MOSUNNY   80  61  52 CALM      30.03F
FT INDIANTOWN  MOSUNNY   85  57  39 VRB5      30.01F
CAPITAL CITY   MOSUNNY   84  58  40 E3        30.01F
HARRISBURG     PTSUNNY   85  64  49 VRB3      30.00F
YORK           MOSUNNY   84  64  50 CALM      30.02S
$$

PAZ038>040-043-044-047-048-054-055-060>062-067>071-241500-
EASTERN PENNSYLVANIA

CITY           SKY/WX    TMP DP  RH WIND       PRES   REMARKS
SCRANTON       SUNNY     80  60  50 VRB5      30.04S
MOUNT POCONO   SUNNY     78  32  18 N3        30.08S
ALLENTOWN      SUNNY     83  60  45 CALM      30.01F
QUAKERTOWN*    SUNNY     84  61  45 CALM      30.02F
READING        SUNNY     84  58  40 N5        30.00F
LANCASTER      SUNNY     81  68  64 CALM      30.01F
COATESVILLE    SUNNY     82  61  47 CALM      30.04S
POTTSTOWN      SUNNY     85  60  42 N5        30.02F
BLUE BELL      SUNNY     82  63  51 CALM      30.00S
DOYLESTOWN     SUNNY     83  60  45 CALM      30.00F
WILLOW GROVE   NOT AVBL
NORTH PHILA    SUNNY     87  63  44 NE6       30.01S
PHILADELPHIA   MOSUNNY   87  61  41 VRB5      30.00R
$$




USA.gov is the U.S. government's official web portal to all federal, state and local government web resources and services.